Weather History for Columbia, MO

Change the Weather History Date:

Tuesday, November 29, 2011

  Actual Average Record
Temperature  
Mean Temperature 37 °F 38 °F  
Max Temperature 47 °F 47 °F 76 °F (1933)
Min Temperature 27 °F 29 °F 0 °F (1929)
Degree Days  
Heating Degree Days 28 27  
Month to date heating degree days 491 592  
Since 1 July heating degree days 844 957  
Cooling Degree Days 0 0  
Month to date cooling degree days 0 0  
Year to date cooling degree days 1508 1247  
Moisture  
Dew Point 23 °F    
Average Humidity 65    
Maximum Humidity 92    
Minimum Humidity 37    
Precipitation  
Precipitation 0.00 in 0.10 in 1.60 in (1975)
Month to date precipitation 4.50 3.14  
Year to date precipitation 36.17 40.07  
Snow  
Snow 0.00 in 0.00 in 5.70 in (1974)
Month to date snowfall T 0.8  
Since 1 July snowfall T 0.8  
Since 1 September snowfall T 0.8  
Snow Depth 0.00 in    
Sea Level Pressure  
Sea Level Pressure 30.09 in    
Wind  
Wind Speed 15 mph (NNW)    
Max Wind Speed 23 mph    
Max Gust Speed 30 mph    
Visibility 10 miles    
Events      
T = Trace of Precipitation, MM = Missing Value Source: NWS Daily Summary

Daily Weather History Graph

Daily Weather History Graph

Search for Another Location

Airport:

Trip Planner

Search our weather history database for the weather conditions in past years. The results will help you decide how hot, cold, wet, or windy it might be!

Date:

Astronomy

Nov. 29, 2011 Rise Set
Actual Time 7:06 AM CST 4:48 PM CST
Civil Twilight 6:36 AM CST 5:17 PM CST
Nautical Twilight 6:03 AM CST 5:50 PM CST
Astronomical Twilight 5:31 AM CST 6:22 PM CST
Moon 10:53 AM CST (11/29) 9:40 PM CST (11/29)
Length of Visible Light 10h 40m
Length of Day
9h 41m
Waxing Crescent, 24% of the Moon is Illuminated
Nov 29
Waxing Crescent
Dec 2
First Quarter
Dec 10
Full
Dec 17
Last Quarter
Dec 24
New

Hourly Weather History & Observations

Time (CST) Temp. Windchill Dew Point Humidity Pressure Visibility Wind Dir Wind Speed Gust Speed Precip Events Conditions
12:54 AM 28.0 °F 17.0 °F 26.1 °F 92% 29.95 in 10.0 mi NNW 13.8 mph - N/A   Clear
1:54 AM 28.9 °F 18.2 °F 26.1 °F 89% 29.96 in 10.0 mi NNW 13.8 mph - N/A   Clear
2:54 AM 28.9 °F 17.3 °F 26.1 °F 89% 29.98 in 10.0 mi NNW 16.1 mph - N/A   Clear
3:54 AM 28.9 °F 18.2 °F 26.1 °F 89% 29.99 in 10.0 mi NNW 13.8 mph - N/A   Clear
4:54 AM 30.0 °F 19.5 °F 26.1 °F 85% 29.99 in 10.0 mi North 13.8 mph - N/A   Clear
5:54 AM 30.0 °F 18.7 °F 26.1 °F 85% 30.01 in 10.0 mi NNW 16.1 mph - N/A   Clear
6:54 AM 30.9 °F 19.8 °F 26.1 °F 82% 30.04 in 10.0 mi NNW 16.1 mph - N/A   Clear
7:54 AM 32.0 °F 21.2 °F 27.0 °F 82% 30.06 in 10.0 mi NNW 16.1 mph - N/A   Clear
8:54 AM 34.0 °F 23.4 °F 28.0 °F 79% 30.08 in 10.0 mi NNW 17.3 mph 26.5 mph N/A   Clear
9:54 AM 37.9 °F 27.3 °F 28.9 °F 70% 30.11 in 10.0 mi North 21.9 mph 27.6 mph N/A   Scattered Clouds
10:46 AM 41.0 °F 31.9 °F 30.2 °F 65% 30.10 in 10.0 mi North 19.6 mph 26.5 mph N/A   Mostly Cloudy
10:54 AM 41.0 °F 31.9 °F 30.0 °F 65% 30.12 in 10.0 mi North 19.6 mph 26.5 mph N/A   Scattered Clouds
11:54 AM 43.0 °F 35.1 °F 27.0 °F 53% 30.11 in 10.0 mi North 17.3 mph 26.5 mph N/A   Clear
12:54 PM 44.1 °F 35.9 °F 24.1 °F 45% 30.10 in 10.0 mi North 19.6 mph - N/A   Clear
1:54 PM 46.9 °F - 21.9 °F 37% 30.10 in 10.0 mi NNW 18.4 mph 23.0 mph N/A   Clear
2:54 PM 45.0 °F 37.9 °F 21.9 °F 40% 30.11 in 10.0 mi NW 16.1 mph - N/A   Clear
3:54 PM 44.1 °F 36.8 °F 21.0 °F 40% 30.12 in 10.0 mi NW 16.1 mph 25.3 mph N/A   Clear
4:54 PM 39.9 °F 31.8 °F 18.0 °F 41% 30.14 in 10.0 mi NNW 15.0 mph 23.0 mph N/A   Clear
5:54 PM 37.0 °F 29.3 °F 17.1 °F 44% 30.16 in 10.0 mi NW 11.5 mph - N/A   Clear
6:54 PM 35.1 °F 26.9 °F 16.0 °F 46% 30.18 in 10.0 mi NW 11.5 mph - N/A   Clear
7:54 PM 33.1 °F 24.9 °F 16.0 °F 50% 30.18 in 10.0 mi NW 10.4 mph - N/A   Clear
8:54 PM 32.0 °F 23.6 °F 16.0 °F 52% 30.18 in 10.0 mi NNW 10.4 mph - N/A   Clear
9:54 PM 30.0 °F 21.1 °F 16.0 °F 56% 30.17 in 10.0 mi NW 10.4 mph - N/A   Clear
10:54 PM 28.9 °F 19.8 °F 15.1 °F 56% 30.17 in 10.0 mi NW 10.4 mph - N/A   Clear
11:54 PM 27.0 °F 18.0 °F 15.1 °F 61% 30.18 in 10.0 mi NW 9.2 mph - N/A   Clear